EUTELSAT KONNECT

Last updated on Sun Apr 12 2026 00:02:55 GMT+0000 (Coordinated Universal Time)

1 45027U 20005B 26101.30820948 .00000051 00000+0 00000+0 0 9993 2 45027 0.0685 92.8043 0001476 216.5950 8.3207 1.00271844 23665
UTC large
Height (km)
Speed (km/s)
/
Latitude / Longitude
Inclination (degrees)
Orbital Period (minutes)
Azimuth
Elevation
Range (km)
Doppler Factor

Next 0 passes for location: London (51.5072 / 0.1276)

Sorry there are no passes over London.
EUTELSAT KONNECT